Tracking 18980 objects as of 17-Feb-2018
HD Live streaming from Space Station
objects crossing your sky now

CZ-4C DEB

Track CZ-4C DEB now!
10-day predictions


NORAD ID: 38305
Int'l Code: 2010-009J
Perigee: 1,203.4 km
Apogee: 1,336.4 km
Inclination: 63.5 °
Period: 110.8 minutes
Semi major axis: 7640 km
RCS: 0.0013 m2 (small)
Launch date: March 5, 2010
Source: People's Republic of China (PRC)
Launch site: Jiuquan Satellite Launch Center, China (JSC)

Note: This is SATELLITE DEBRIS
aabbcc
Your satellite tracking list
Your tracking list is empty




NASA's NSSDC Master Catalog

Two Line Element Set (TLE):
1 38305U 10009J   18047.93341642 -.00000017  00000-0  20140-3 0  9990
2 38305  63.4986 160.4129 0087030  66.7237  44.7629 12.99830722377191
Source of the keplerian elements: AFSPC